User: anonymous   Login
Location: Caltech
(34.1382°N, 118.1253°W)
Time: 18:23:31
(UTC-07:00)
Language:

Iridium 91 - Orbit

View from above orbital plane
View from above orbital plane
View from above satellite
View from above satellite

Ground track
Ground track

The orbit data is extracted from the following two-line orbital elements,

1 27372U 02005A   14297.47048944  .00000376  00000-0  12735-3 0  5411
2 27372 086.3969 331.7907 0003068 126.8769 007.1890 14.34220912673065
Epoch (UTC): 24 October 2014 11:17:30
Eccentricity: 0.0003068
inclination: 86.3969°
perigee height: 775 km
apogee height: 780 km
right ascension of ascending node: 331.7907°
argument of perigee: 126.8769°
revolutions per day: 14.34220912
mean anomaly at epoch: 7.1890°
orbit number at epoch: 67306

The dashed part of the orbit path shows where the satellite is in the earth's shadow,  

DLR